Wind_Speed
39 38 35 37 40 43 45 44 47 49 43 41 42 44 45 48 44 49 46 40 31 30 37 40 36 32 27 27 36 33 30 34 33 33 34 34 38 33
36 34 38 40 40 43 43 45 49 45 39 38 39 40 39 39 37 42 37 29 23 14 23 22 26 22 19 21 22 25 31 27 26 27 27 27 34 31
33 36 39 39 41 42 44 47 47 39 36 36 35 38 35 36 36 35 31 18 13 12 16 22 30 33 32 33 34 34 32 33 32 32 30 31 32 37
33 38 38 40 42 44 46 47 41 37 36 36 38 33 35 35 32 28 23 21 17 15 18 23 26 33 35 31 35 37 41 34 31 34 35 37 39 40
36 37 40 41 43 44 47 41 37 35 35 35 33 32 33 33 29 26 20 19 18 17 19 21 22 26 25 26 27 30 30 32 33 37 39 39 41 43
37 37 39 40 43 46 41 35 33 33 33 31 29 27 26 25 25 24 22 20 19 19 21 24 26 27 27 28 30 31 32 34 36 38 40 41 43 45
34 36 37 41 42 38 33 31 30 30 29 28 26 26 27 27 27 28 28 28 27 27 28 28 30 32 33 35 36 38 39 40 42 43 45 48 50 51
33 35 37 39 36 32 32 31 31 31 30 29 29 29 30 31 31 31 32 32 33 34 36 37 38 39 38 37 38 39 40 42 43 45 48 49 51 52
33 33 36 34 32 31 31 31 31 31 31 31 32 33 33 34 34 34 35 35 35 37 39 41 42 41 41 42 43 45 45 45 46 48 49 51 52 53
31 32 33 31 30 30 30 30 30 31 31 32 33 35 35 35 35 36 36 37 38 39 41 41 41 42 42 43 47 49 48 49 52 54 55 56 55 54
30 30 29 30 31 32 33 32 32 33 33 34 35 35 36 37 37 38 38 39 40 40 41 41 41 42 43 45 47 50 50 53 56 56 54 51 49 48
30 31 31 31 32 33 33 34 34 35 36 36 36 37 38 39 40 40 41 41 40 41 41 41 44 45 45 47 48 48 51 52 51 46 42 40 40 40
30 31 33 33 33 33 34 35 36 36 37 37 38 39 40 41 42 42 42 43 42 42 43 44 46 45 44 46 46 46 46 40 33 28 28 32 35 38
31 33 34 34 35 35 36 36 36 37 38 38 40 41 42 43 43 44 45 45 45 45 45 44 44 43 43 44 45 44 41 34 28 25 25 25 28 30
33 34 35 36 36 36 36 36 37 38 39 40 41 42 44 45 46 47 47 47 46 45 45 44 44 43 43 42 40 39 39 36 33 30 28 27 28 29
33 35 35 36 35 35 35 37 38 39 40 41 42 44 45 46 48 48 48 48 48 48 45 44 43 42 41 41 38 38 39 36 38 35 31 30 29 28
36 36 36 35 35 36 37 39 40 40 41 42 42 44 46 47 49 50 51 52 49 48 46 45 43 41 41 40 39 39 39 40 40 37 32 31 32 31
36 36 37 37 37 37 38 39 39 40 40 42 44 43 44 46 49 52 53 51 48 47 46 45 44 43 43 42 41 40 41 43 44 40 37 33 32 33
35 37 38 39 37 38 39 39 39 40 43 43 41 45 48 51 53 53 51 49 47 45 45 46 47 46 45 46 44 44 44 45 45 43 42 40 35 35
37 39 39 38 37 37 38 39 41 43 40 42 46 48 51 54 55 53 50 48 47 46 48 51 51 50 50 50 46 48 49 48 47 46 44 43 42 40
37 40 38 35 36 38 41 43 41 39 43 46 47 50 53 55 56 53 50 49 48 49 50 52 55 55 56 56 54 51 51 50 50 48 47 45 44 42
40 40 37 37 40 41 44 42 40 42 45 46 50 52 55 57 55 52 50 49 49 51 52 55 58 60 60 58 54 51 50 51 51 50 50 49 46 42
42 40 40 40 42 44 43 41 43 45 48 50 53 54 57 57 55 52 51 51 52 53 56 59 60 60 57 55 52 49 49 48 49 49 49 52 51 47
Wind_Direction
289 290 292 294 298 299 304 305 307 307 302 300 303 305 312 316 317 322 315 309 286 282 272 265 288 287 278 271 266 269 260 258 256 245 236 242 238 245
289 290 296 296 297 301 304 305 308 305 300 301 303 306 315 325 311 325 326 306 288 299 287 281 275 293 283 251 248 248 250 251 267 267 260 254 252 262
289 295 296 296 300 303 304 306 306 301 299 302 304 308 312 323 322 329 328 333 312 303 292 270 276 293 298 274 258 271 275 283 289 283 276 275 261 255
293 297 296 299 303 305 305 307 303 298 298 298 304 303 307 316 322 329 325 328 320 301 288 285 274 279 286 276 273 281 273 280 275 271 268 264 260 260
295 294 296 302 305 303 305 305 304 300 299 300 302 301 308 311 314 317 318 311 312 311 305 299 289 285 286 284 283 278 273 270 269 266 263 260 260 258
293 295 300 302 302 304 304 303 302 301 302 304 307 307 308 315 317 318 318 314 310 304 299 296 295 294 291 286 282 279 277 273 269 267 265 264 264 263
294 297 300 302 304 304 304 305 307 307 305 303 303 306 307 308 308 309 311 311 308 304 301 297 295 291 289 285 284 282 279 278 275 272 268 266 265 266
294 298 300 304 305 307 308 308 307 305 301 300 300 301 302 305 304 304 303 301 300 301 300 300 300 298 297 294 291 289 287 283 279 276 273 272 270 268
293 298 304 306 304 303 304 304 304 302 299 298 298 298 300 299 300 299 299 299 299 299 299 299 298 298 298 298 298 296 292 288 287 284 279 276 272 270
295 303 305 301 299 300 301 303 303 301 301 300 301 302 302 301 301 301 301 301 301 301 301 300 298 298 298 298 299 296 293 293 291 287 281 276 272 268
299 303 304 303 302 301 299 299 300 301 301 301 302 304 303 301 301 302 302 302 301 301 301 299 298 298 298 300 299 296 296 295 293 289 281 272 267 265
298 299 301 303 304 303 300 300 301 300 301 302 303 304 305 304 303 304 303 301 300 300 299 296 297 299 301 302 300 299 301 300 297 292 281 273 268 265
297 299 300 302 303 305 306 305 305 304 304 303 303 305 305 304 304 305 305 302 299 298 297 298 300 300 301 302 299 305 305 303 302 299 288 278 272 269
297 298 300 302 303 304 304 305 306 306 306 304 304 304 304 305 306 307 307 304 301 300 299 298 297 299 301 304 306 309 304 298 297 296 292 285 279 275
298 300 301 302 302 303 304 305 306 307 306 305 304 305 306 307 308 309 308 306 303 302 300 297 296 298 301 304 308 303 297 295 292 293 292 290 285 281
298 301 304 304 302 302 302 304 306 307 308 307 307 307 309 309 309 309 308 307 307 305 300 296 295 298 302 303 305 296 292 290 288 290 293 292 292 291
300 303 304 304 302 301 305 305 306 308 308 309 309 309 310 309 309 308 307 306 305 302 299 297 295 298 301 302 300 298 290 284 282 282 286 287 288 290
301 302 304 305 303 303 303 306 308 307 307 307 309 311 313 313 312 311 309 307 304 302 301 300 298 299 301 301 299 294 288 282 279 278 275 276 281 284
302 303 304 303 303 303 304 305 305 305 307 308 309 311 312 314 314 314 312 309 306 304 302 301 300 300 300 300 297 293 286 281 276 274 271 269 271 273
299 303 304 303 302 301 303 304 304 306 308 309 311 313 314 314 315 314 312 309 307 306 304 303 302 302 300 299 297 289 286 282 276 271 269 267 265 267
300 301 301 299 298 301 304 303 303 305 308 310 313 315 316 316 316 314 310 309 307 306 305 304 303 303 301 300 296 290 283 279 276 272 269 266 263 265
296 298 296 295 300 301 302 301 300 305 308 309 313 314 317 318 317 314 311 310 309 308 307 305 304 302 300 298 295 289 282 278 275 271 269 266 263 261
296 295 292 296 300 301 300 300 304 306 307 308 312 315 318 319 316 312 311 311 310 310 309 307 305 304 302 298 296 291 285 278 272 268 266 265 264 261
Height
5749 5746 5744 5742 5739 5737 5733 5729 5725 5721 5716 5712 5706 5701 5694 5687 5679 5668 5657 5648 5645 5645 5649 5655 5657 5658 5659 5663 5664 5667 5668 5668 5670 5671 5674 5676 5679 5681
5740 5738 5736 5733 5731 5728 5723 5719 5714 5709 5706 5701 5697 5692 5686 5679 5671 5661 5651 5644 5641 5641 5645 5649 5653 5653 5652 5655 5656 5657 5658 5659 5661 5662 5663 5665 5668 5669
5731 5729 5727 5725 5721 5717 5714 5709 5703 5699 5696 5692 5689 5684 5678 5673 5666 5658 5649 5643 5639 5640 5643 5646 5646 5646 5647 5648 5649 5649 5649 5650 5650 5651 5652 5653 5654 5656
5722 5721 5718 5716 5712 5708 5704 5699 5693 5689 5686 5683 5679 5675 5671 5666 5661 5655 5648 5643 5640 5638 5639 5639 5639 5641 5641 5640 5640 5641 5641 5639 5639 5640 5640 5642 5642 5643
5714 5712 5709 5706 5703 5699 5694 5688 5684 5680 5677 5674 5670 5667 5663 5659 5655 5651 5646 5642 5639 5637 5636 5635 5635 5634 5632 5631 5630 5631 5630 5630 5627 5630 5630 5628 5629 5630
5706 5703 5700 5697 5694 5689 5684 5679 5676 5672 5669 5665 5662 5659 5656 5652 5649 5646 5642 5638 5635 5633 5631 5629 5627 5625 5624 5624 5623 5623 5621 5620 5620 5619 5618 5616 5617 5618
5697 5694 5691 5688 5684 5680 5675 5672 5668 5665 5662 5658 5656 5652 5649 5646 5643 5640 5636 5632 5629 5627 5624 5623 5621 5618 5616 5615 5613 5612 5611 5609 5607 5605 5604 5604 5604 5603
5688 5685 5682 5679 5674 5670 5667 5664 5660 5657 5655 5652 5649 5646 5642 5639 5636 5632 5628 5625 5622 5619 5615 5613 5610 5607 5604 5602 5600 5598 5595 5593 5592 5591 5589 5587 5586 5585
5680 5677 5674 5670 5666 5663 5660 5657 5654 5650 5647 5644 5641 5638 5635 5631 5628 5624 5620 5617 5613 5610 5607 5604 5600 5597 5593 5590 5586 5582 5580 5578 5575 5572 5570 5568 5567 5566
5672 5669 5665 5662 5659 5656 5653 5650 5646 5643 5640 5636 5633 5629 5625 5622 5618 5614 5611 5607 5603 5600 5596 5593 5589 5585 5581 5577 5574 5569 5565 5562 5558 5555 5551 5549 5547 5547
5664 5661 5658 5655 5651 5648 5645 5642 5639 5635 5631 5627 5623 5619 5615 5612 5608 5604 5600 5597 5593 5589 5585 5581 5577 5573 5569 5564 5559 5554 5550 5546 5540 5535 5531 5529 5529 5529
5656 5653 5650 5647 5643 5640 5637 5634 5630 5626 5622 5618 5614 5610 5606 5602 5598 5594 5590 5586 5582 5578 5574 5570 5565 5560 5556 5550 5545 5540 5534 5528 5521 5515 5513 5512 5513 5514
5648 5646 5642 5638 5635 5632 5628 5625 5621 5617 5613 5608 5604 5600 5596 5592 5588 5583 5579 5574 5570 5566 5562 5556 5550 5546 5542 5536 5530 5525 5518 5514 5508 5504 5502 5501 5501 5502
5640 5637 5633 5630 5627 5624 5620 5616 5612 5607 5603 5598 5594 5590 5586 5581 5577 5572 5567 5562 5557 5552 5548 5543 5537 5532 5528 5522 5516 5510 5506 5504 5500 5496 5495 5493 5491 5490
5631 5628 5625 5621 5618 5614 5610 5606 5602 5597 5593 5589 5584 5580 5575 5570 5566 5560 5555 5549 5543 5538 5534 5529 5525 5519 5514 5509 5504 5498 5494 5491 5489 5488 5486 5483 5480 5478
5623 5620 5616 5612 5608 5604 5600 5596 5592 5588 5584 5579 5574 5570 5564 5559 5554 5548 5542 5537 5530 5525 5521 5516 5511 5506 5502 5497 5492 5486 5483 5481 5476 5476 5475 5472 5469 5467
5614 5610 5607 5603 5598 5594 5590 5586 5582 5578 5573 5568 5563 5558 5553 5547 5541 5535 5528 5522 5516 5510 5505 5502 5498 5493 5489 5484 5479 5475 5471 5468 5465 5464 5463 5462 5458 5456
5604 5601 5597 5593 5588 5584 5580 5576 5572 5567 5563 5558 5552 5547 5541 5535 5528 5521 5515 5507 5501 5496 5491 5487 5483 5480 5476 5471 5467 5462 5458 5454 5451 5452 5451 5451 5449 5445
5595 5591 5587 5583 5579 5574 5570 5565 5561 5557 5552 5547 5541 5535 5529 5522 5515 5507 5501 5494 5488 5483 5477 5473 5469 5466 5463 5458 5452 5447 5444 5440 5438 5437 5436 5436 5438 5435
5585 5581 5577 5573 5569 5564 5560 5555 5550 5546 5541 5536 5530 5524 5517 5509 5501 5494 5487 5481 5475 5469 5463 5457 5453 5449 5446 5443 5438 5430 5425 5423 5421 5421 5420 5421 5422 5422
5575 5570 5566 5562 5558 5554 5549 5545 5540 5535 5530 5524 5518 5511 5504 5497 5488 5481 5474 5468 5462 5456 5449 5442 5435 5431 5427 5422 5419 5413 5406 5403 5401 5402 5402 5404 5405 5407
5564 5560 5556 5551 5547 5543 5538 5533 5528 5523 5518 5512 5506 5498 5491 5483 5475 5467 5460 5454 5447 5442 5435 5427 5419 5411 5405 5400 5397 5393 5388 5383 5383 5383 5382 5383 5387 5392
5552 5549 5544 5541 5536 5532 5527 5522 5517 5511 5506 5500 5493 5485 5478 5470 5462 5455 5448 5441 5434 5427 5419 5411 5401 5392 5385 5379 5375 5372 5368 5365 5363 5364 5365 5363 5366 5371